                ,  0.865,  0.962,  1.058,  1.155,  1.251,  1.348,  1.445,  1.541,  1.638,  1.734,  1.831,  1.928,  2.024,  2.121,  2.217,  2.314,  2.410,  2.507,  2.604,  2.700,  2.797,  2.893,  2.990,  3.087,  3.183,  3.280,  3.376,  3.473,  3.570,  3.666,  3.763,  3.859,  3.956,  4.053,  4.149,  4.246,  4.342,  4.439,  4.536,  4.632,  4.729,  4.825,  4.922,  5.018,  5.115,  5.212,  5.308,  5.405,  5.501,  5.598,  5.695,  5.791
1998/10/09 00:00,  999.0,  999.0,  999.0,  999.0,  999.0,  999.0,  999.0,   -0.7,   -3.0,   -3.2,   -4.3,   -5.3,   -0.9,   -1.1,   -1.9,   -1.5,   -3.3,   -8.2,   -7.5,   -5.9,   -7.3,  -15.5,   -9.3,   -9.7,  -10.4,   -9.5,   -6.6,   -5.6,   -5.9,   -6.0,   -5.3,   -6.0,   -6.5,   -8.3,   -6.4,   -2.1,   -1.9,    0.7,  999.0,  999.0,    9.9,    9.0,    9.4,    9.2,    8.9,   11.4,   11.0,   10.7,   10.6,    9.7,   11.1,   10.6
1998/10/09 00:10,  999.0,  999.0,  999.0,  999.0,  999.0,    0.9,   -2.0,   -1.9,   -3.5,   -3.4,   -5.1,   -3.1,   -1.5,   -2.0,   -1.5,   -1.3,   -0.7,   -4.2,   -3.5,   -2.4,   -2.2,   -1.9,    0.2,   -0.0,   -0.2,   -0.3,    0.1,   -0.2,   -1.8,   -6.5,   -7.2,   -6.4,   -5.5,   -3.2,   -3.6,   -3.4,   -1.1,   -0.2,    2.9,    2.6,    2.3,    3.1,    3.2,    2.5,    3.3,    3.5,    4.1,    4.7,    5.4,    5.6,    6.7,    7.8
1998/10/09 00:20,  999.0,  999.0,  999.0,  999.0,  999.0,   -1.6,   -3.6,   -3.7,   -3.6,   -2.8,   -2.1,   -0.7,    0.8,    2.2,    3.2,    3.6,    2.9,    2.1,    1.5,    1.6,    1.7,    1.3,    0.8,    0.3,    0.0,    0.3,   -0.4,   -0.3,   -1.4,    0.2,    0.7,    0.3,    0.2,    2.0,    3.0,    4.0,    4.3,    5.2,    6.2,    7.4,    7.9,    8.2,    7.8,    7.3,    6.3,    5.5,    5.1,    5.2,    5.3,    5.4,    5.2,    4.7
1998/10/09 00:30,  999.0,  999.0,  999.0,  999.0,  999.0,   -0.5,  999.0,   -1.6,   -2.1,   -2.1,   -1.8,   -1.7,   -1.3,   -0.5,    0.9,    1.9,    2.7,    2.8,    2.1,    1.7,    1.5,    1.6,    1.6,    1.9,    2.6,    3.2,    3.3,    3.0,    2.9,    2.9,    3.2,    2.9,    2.8,    3.5,    4.7,    4.5,    4.4,    4.7,    3.2,    5.3,    6.1,    7.1,    7.8,    8.7,    8.1,    6.6,    5.6,    4.5,    4.4,    3.7,    3.2,    3.6
1998/10/09 00:40,  999.0,  999.0,  999.0,  999.0,  999.0,   -1.0,   -1.6,   -1.3,   -1.4,   -1.0,   -0.8,   -0.8,   -0.5,    0.4,    1.3,    1.9,    2.1,    1.8,    1.8,    2.2,    3.0,    3.3,    3.6,    3.8,    3.4,    3.0,    2.8,    2.7,    2.4,    2.4,    1.7,    0.9,    0.6,    0.8,    1.5,    3.0,  999.0,  999.0,  999.0,    4.3,    4.1,    5.0,    5.9,    6.3,    6.5,    8.0,    8.0,    6.2,    6.1,    3.2,    5.0,    3.1
1998/10/09 00:50,  999.0,  999.0,  999.0,  999.0,  999.0,    0.5,   -0.5,   -0.7,   -0.9,   -0.7,   -0.7,   -1.2,   -0.8,   -0.2,    0.7,    1.8,    2.3,    2.6,    2.6,    2.9,    2.6,    2.8,    3.2,    3.1,    2.3,    2.3,    2.5,    2.6,    2.5,    2.0,    1.0,   -0.1,   -0.0,   -0.1,   -0.4,    0.4,    2.8,  999.0,    1.3,    1.4,    0.9,    2.0,    3.3,    3.9,    4.1,    4.9,    6.0,    6.8,    6.6,    5.6,    5.0,    4.3
1998/10/09 01:00,  999.0,  999.0,  999.0,  999.0,  999.0,   -0.4,   -0.8,   -0.2,   -0.8,   -0.9,   -1.1,   -1.1,   -0.4,    0.2,    1.8,    2.4,    3.0,    2.4,    2.7,    3.5,    3.7,    3.8,    4.2,    3.8,    4.5,    4.8,    4.6,    4.3,    4.1,    4.0,    3.8,    3.0,    2.8,    3.2,    3.7,    3.9,    4.3,    4.4,    4.0,    3.3,    2.7,    3.3,    3.9,    4.3,    4.9,    6.1,    6.8,    7.2,    7.3,    7.1,    7.2,    7.1
1998/10/09 01:10,  999.0,  999.0,  999.0,  999.0,  999.0,  999.0,  999.0,   -1.2,   -1.0,   -0.4,   -0.1,   -0.4,   -0.7,    0.0,    1.2,    2.4,    3.0,    2.9,    2.8,    3.2,    3.5,    3.5,    3.6,    3.7,    4.0,    4.6,    4.3,    3.9,    3.9,    4.2,    4.5,    4.8,    4.7,    4.0,    3.6,    4.2,    4.7,    4.0,    3.2,    2.4,    1.9,    1.7,    1.8,    2.3,    3.2,    4.2,    5.3,    5.9,    5.9,    5.6,    5.4,    5.4
1998/10/09 01:20,  999.0,  999.0,  999.0,  999.0,  999.0,   -0.6,    0.5,    0.4,    0.1,   -0.4,   -0.7,   -1.0,   -0.6,   -0.6,    0.4,    1.6,    2.0,    2.2,    2.6,    3.1,    3.2,    3.0,    2.7,    2.2,    1.8,    1.8,    2.2,    2.3,    3.0,    4.0,    4.9,    5.1,    4.2,    4.0,    4.0,    4.9,    5.3,    5.2,    4.0,    3.4,    2.9,    2.9,    2.8,    2.8,    3.3,    3.8,    4.8,    5.6,    6.2,    6.6,    6.5,    6.2
1998/10/09 01:30,  999.0,  999.0,  999.0,  999.0,  999.0,    0.5,   -0.5,    1.2,    0.3,   -0.5,   -1.0,   -1.3,   -1.1,   -1.1,    0.2,    1.3,    1.6,    2.2,    2.6,    2.8,    2.9,    2.1,    1.7,    1.9,    2.2,    2.2,    2.6,    3.6,    4.1,    3.9,    3.6,    3.4,    3.0,    2.7,    3.3,    4.3,  999.0,  999.0,    5.2,    5.1,    6.2,    6.3,    5.8,    4.7,    3.9,    3.8,    3.9,    3.8,    3.7,    4.2,    4.8,    5.1
1998/10/09 01:40,  999.0,  999.0,  999.0,  999.0,  999.0,    1.0,    0.4,   -0.0,    0.1,   -1.1,   -1.6,   -1.5,   -1.5,   -1.2,    0.2,    1.6,    2.5,    2.7,    2.3,    1.7,    1.4,    1.2,    1.3,    1.6,    1.9,    2.5,    3.2,    3.5,    3.9,    4.1,    4.2,    3.8,    3.8,    4.0,    4.9,    5.3,    5.8,    7.0,    6.0,    7.1,    8.4,    9.1,    9.5,    9.3,    8.4,    6.8,    5.2,    4.2,    3.5,    3.1,    2.5,    2.6
1998/10/09 01:50,  999.0,  999.0,  999.0,  999.0,  999.0,    0.9,    0.9,    0.9,    0.3,   -1.0,   -1.2,   -1.3,   -1.2,   -0.6,    0.3,    2.0,    2.7,    2.3,    1.7,    1.9,    2.8,    4.2,    4.5,    4.3,    4.4,    4.0,    3.9,    4.2,    4.0,    3.1,    2.8,    3.8,    4.6,    5.3,    5.4,    5.5,    5.3,    6.9,    7.7,    8.9,    9.7,    9.9,   10.4,   10.6,   11.0,   10.7,   10.1,    8.7,    7.4,    5.8,    4.6,    3.5
1998/10/09 02:00,  999.0,  999.0,  999.0,  999.0,  999.0,    0.1,    0.6,    0.0,   -0.4,   -0.8,   -0.9,   -0.7,   -0.0,    0.7,    1.8,    2.5,    2.7,    2.8,    2.3,    2.1,    2.5,    3.3,    3.6,    4.7,    5.5,    5.0,    3.7,    3.5,    3.3,    2.6,    2.2,    2.9,    3.8,    4.8,    5.9,    6.3,    4.9,  999.0,  999.0,   10.1,   10.0,   10.2,   10.1,   10.1,   10.0,    9.7,    9.6,    9.6,    9.3,    8.8,    8.2,    6.7
1998/10/09 02:10,  999.0,  999.0,  999.0,  999.0,  999.0,   -0.7,    0.2,   -0.1,   -0.4,   -0.9,   -0.9,   -1.2,   -0.7,    0.2,    1.2,    2.1,    3.4,    3.9,    3.4,    2.5,    1.9,    1.7,    2.1,    3.3,    3.4,    2.4,    0.5,   -0.2,   -0.3,   -0.3,   -0.6,    0.3,    1.7,    3.4,    5.1,    7.0,   10.7,   10.1,   10.6,   10.0,    9.9,    9.7,    9.6,    9.6,   10.0,   10.3,   10.8,   11.8,   11.9,   11.2,    9.9,    7.9
1998/10/09 02:20,  999.0,  999.0,  999.0,  999.0,  999.0,   -1.5,   -1.9,   -2.1,   -1.9,   -1.2,   -1.5,   -1.0,   -0.4,    0.0,    0.5,    1.1,    1.3,    2.3,    2.5,    2.2,    2.3,    2.5,    2.4,    2.3,    2.1,    0.9,   -0.1,    0.5,    1.6,    2.9,    3.9,    5.2,    6.1,    7.2,    7.9,    8.7,   10.4,   12.4,   12.6,   12.0,   10.6,    9.1,    8.5,    9.4,   10.8,   12.1,   13.3,   13.6,   13.2,   12.8,   11.9,   10.2
1998/10/09 02:30,  999.0,  999.0,  999.0,  999.0,  999.0,   -1.2,   -1.5,   -1.7,   -2.1,   -2.3,   -2.4,   -2.5,   -1.8,   -2.4,   -2.4,   -3.9,   -4.0,   -2.3,   -0.2,   -0.1,   -0.3,   -0.0,    0.0,   -0.2,   -1.3,   -2.3,   -2.1,   -1.7,   -0.4,    1.9,    2.4,    3.4,    3.6,    3.8,    5.2,    6.7,    7.6,   12.5,   11.2,   11.4,   10.9,   10.7,   10.9,   11.2,   11.7,   11.4,   11.4,   11.5,   11.9,   12.9,   13.9,   13.7
1998/10/09 02:40,  999.0,  999.0,  999.0,  999.0,  999.0,   -2.0,   -1.9,   -2.5,   -3.1,   -2.9,   -2.7,   -2.9,   -1.9,   -0.7,   -0.3,   -0.2,    0.4,   -0.5,   -0.2,   -0.3,   -0.9,   -1.4,   -1.1,   -0.4,    0.2,    1.4,    1.8,    3.2,    5.7,    7.6,    7.8,    6.7,    6.2,    6.6,    7.1,    8.1,    9.7,   10.3,   10.2,   10.0,    9.4,    9.5,    8.9,    8.5,    8.8,    9.5,   10.3,   11.0,   11.2,   10.8,   10.7,   11.1
1998/10/09 02:50,  999.0,  999.0,  999.0,  999.0,  999.0,   -3.7,   -3.9,   -4.6,   -4.4,   -4.4,   -3.2,   -1.7,   -0.4,    0.2,   -0.7,   -0.7,   -0.7,   -0.7,   -0.8,   -1.2,   -1.3,   -0.7,   -0.2,    1.4,    4.2,    5.2,    3.3,    2.0,    1.0,    0.6,    1.3,    2.3,    2.2,    1.8,    1.6,    2.2,    3.7,  999.0,    6.6,    7.0,    8.2,    9.0,    9.6,    9.8,    9.7,   10.0,   10.6,   10.9,   10.3,    9.5,    9.6,   10.2
1998/10/09 03:00,  999.0,  999.0,  999.0,  999.0,  999.0,   -2.0,   -2.8,   -3.0,   -3.6,   -3.5,   -3.6,   -4.0,   -4.5,   -4.1,   -3.8,   -3.2,   -2.5,   -3.3,   -3.6,   -2.5,   -2.1,   -1.8,   -2.0,   -2.4,   -1.6,    0.4,    0.6,    0.2,   -0.1,    0.4,    1.9,    3.7,    4.0,    3.4,    2.4,    2.1,    3.8,    5.9,    5.3,    4.8,    5.8,    6.6,    7.2,    7.9,    8.4,    8.9,    9.2,    9.7,    8.7,    6.2,    6.5,    6.6
1998/10/09 03:10,  999.0,  999.0,  999.0,  999.0,  999.0,   -2.7,   -3.9,   -4.3,   -4.3,   -5.1,   -4.8,   -4.5,   -1.8,    1.0,   -1.5,   -3.5,   -0.9,   -1.7,   -3.1,   -2.0,   -1.7,   -1.2,   -0.2,    0.5,    0.9,    0.8,    1.1,  999.0,  999.0,   -0.8,    1.7,  999.0,    2.6,    2.1,    1.9,    2.0,    1.2,    0.0,    0.4,    1.1,    2.2,    2.1,    5.8,    7.6,    8.5,    8.2,    8.7,    9.2,    9.3,    9.2,    9.2,   10.7
1998/10/09 03:20,  999.0,  999.0,  999.0,  999.0,  999.0,  999.0,   -4.0,   -2.7,   -3.4,   -3.9,   -1.7,    0.6,   -0.3,   -0.6,   -0.2,    0.8,    1.3,    2.0,    2.3,    2.0,    1.3,    2.0,    3.2,    3.3,    1.7,    1.4,    2.1,    3.4,    3.1,    0.6,    1.1,    0.6,  999.0,  999.0,  999.0,  999.0,  999.0,  999.0,  999.0,    2.3,    4.6,    6.4,    6.7,    8.1,    8.4,    9.0,    9.8,    9.4,    4.9,    4.9,    6.0,    7.8
1998/10/09 03:30,  999.0,  999.0,  999.0,  999.0,  999.0,  999.0,    0.9,    1.3,   -0.9,   -1.5,    0.6,    1.8,    1.4,    3.3,    1.6,    2.1,    2.3,    2.2,    3.9,    2.2,    1.1,    0.6,   -0.8,    1.4,  999.0,   -1.7,   -2.3,  999.0,  999.0,    0.2,   -0.1,    0.2,   -3.5,   -2.1,   -0.6,  999.0,    3.7,    1.4,    0.2,    0.1,  999.0,  999.0,  999.0,  999.0,  999.0,  999.0,    2.0,  999.0,    0.2,    0.5,    1.2,  999.0
1998/10/09 03:40,  999.0,  999.0,  999.0,  999.0,  999.0,  999.0,    1.7,    1.8,    1.3,    1.7,    0.8,    0.5,    1.0,    2.7,    2.5,    2.9,    3.6,  999.0,    4.7,    3.6,    4.0,    3.5,  999.0,  999.0,  999.0,  999.0,  999.0,  999.0,  999.0,  999.0,    3.4,  999.0,  999.0,  999.0,  999.0,  999.0,  999.0,    2.7,    0.9,   -0.2,  999.0,  999.0,  999.0,  999.0,  999.0,  999.0,  999.0,  999.0,  999.0,  999.0,  999.0,  999.0
1998/10/09 03:50,  999.0,  999.0,  999.0,  999.0,  999.0,  999.0,    3.7,    3.4,    1.9,    0.7,   -0.1,    1.7,    6.4,    2.0,    1.4,  999.0,   -0.7,   -2.0,    3.9,    2.0,    0.6,  999.0,  999.0,  999.0,  999.0,    0.7,  999.0,  999.0,  999.0,  999.0,  999.0,  999.0,  999.0,  999.0,  999.0,  999.0,  999.0,  999.0,  999.0,  999.0,  999.0,  999.0,    5.8,    4.9,    5.3,    5.4,    5.8,    6.5,    3.8,    3.3,    2.1,  999.0
1998/10/09 04:00,  999.0,  999.0,  999.0,  999.0,  999.0,    3.6,  999.0,    1.7,    0.3,   -0.4,   -0.2,    0.4,   -0.1,    1.5,    0.8,    0.5,   -0.6,    3.3,    2.7,   -0.9,   -1.2,   -1.3,   -0.5,   -0.2,    1.6,    3.4,    0.3,    1.1,    1.2,    1.8,    2.8,    3.3,    3.7,    3.6,    2.3,    0.6,    0.2,    1.2,    1.1,    0.9,    3.3,    5.6,    6.1,    5.5,    5.5,    5.1,    5.6,    6.0,    5.6,    5.5,    4.4,  999.0
1998/10/09 04:10,  999.0,  999.0,  999.0,  999.0,  999.0,    3.2,    1.4,    0.9,   -0.2,   -1.5,   -1.7,   -1.6,   -1.0,   -1.2,   -1.6,   -1.7,   -1.6,   -2.0,   -2.4,   -2.5,   -2.9,   -2.8,   -3.0,   -2.8,   -2.1,   -1.2,   -0.2,    1.1,    2.9,    3.2,    3.0,    3.2,    2.9,    1.4,    0.1,   -0.6,   -0.6,    0.4,    0.9,    0.3,    2.2,    3.7,    3.1,    4.7,  999.0,  999.0,    7.2,  999.0,  999.0,  999.0,  999.0,  999.0
1998/10/09 04:20,  999.0,  999.0,  999.0,  999.0,  999.0,  999.0,  999.0,    1.5,    3.3,    2.6,    2.0,    3.0,    2.5,    2.2,    1.5,   -0.7,   -0.2,   -2.6,   -0.6,  999.0,   -1.9,   -1.7,  999.0,  999.0,  999.0,  999.0,  999.0,  999.0,  999.0,  999.0,  999.0,  999.0,  999.0,  999.0,  999.0,  999.0,  999.0,  999.0,  999.0,  999.0,  999.0,  999.0,  999.0,  999.0,  999.0,  999.0,  999.0,  999.0,  999.0,  999.0,  999.0,  999.0
1998/10/09 04:30,  999.0,  999.0,  999.0,  999.0,  999.0,  999.0,   -1.1,   -0.6,   -2.9,   -2.9,   -1.2,    0.7,    1.5,    2.0,    2.5,    2.5,    1.6,    0.9,    0.7,    0.3,   -0.5,   -0.5,  999.0,  999.0,  999.0,  999.0,  999.0,  999.0,  999.0,  999.0,  999.0,  999.0,  999.0,  999.0,  999.0,  999.0,  999.0,  999.0,  999.0,  999.0,  999.0,  999.0,  999.0,  999.0,  999.0,  999.0,  999.0,  999.0,  999.0,  999.0,  999.0,  999.0
1998/10/09 04:40,  999.0,  999.0,  999.0,  999.0,  999.0,  999.0,  999.0,   -1.3,   -1.0,    3.1,    1.1,    2.4,    0.1,    2.0,    3.6,    2.5,    2.9,    5.1,    6.4,    8.5,    6.6,    6.7,  999.0,  999.0,   -0.6,   -0.2,   -3.0,   -2.8,   -2.6,   -2.1,   -1.0,   -0.3,    1.3,    2.3,    2.2,   -0.8,   -1.2,    1.5,    2.3,  999.0,  999.0,  999.0,  999.0,  999.0,  999.0,  999.0,  999.0,  999.0,  999.0,  999.0,  999.0,  999.0
1998/10/09 04:50,  999.0,  999.0,  999.0,  999.0,  999.0,  999.0,   -2.6,   -3.1,   -0.7,   -0.8,   -1.9,    1.5,    3.4,    3.8,    5.5,  999.0,  999.0,    7.0,    4.2,  999.0,  999.0,   -0.9,   -2.1,   -6.1,   -4.6,   -2.6,   -2.8,   -2.8,   -2.6,   -2.5,   -1.2,   -0.4,    1.5,    2.0,    1.7,    1.5,    2.3,    4.5,  999.0,  999.0,  999.0,    4.1,  999.0,  999.0,    3.9,    3.4,    3.9,  999.0,    4.2,  999.0,  999.0,  999.0
1998/10/09 05:00,  999.0,  999.0,  999.0,  999.0,  999.0,  999.0,   -1.7,   -1.8,   -1.1,   -0.5,    0.4,    2.4,    3.0,    3.2,    2.1,  999.0,    1.6,    1.1,    1.3,    0.8,  999.0,  999.0,  999.0,  999.0,  999.0,  999.0,  999.0,  999.0,  999.0,  999.0,  999.0,  999.0,  999.0,  999.0,  999.0,  999.0,  999.0,  999.0,    5.7,  999.0,  999.0,  999.0,  999.0,  999.0,  999.0,  999.0,  999.0,  999.0,  999.0,  999.0,  999.0,  999.0
1998/10/09 05:10,  999.0,  999.0,  999.0,  999.0,  999.0,  999.0,   -3.3,   -1.7,    0.7,    2.5,    3.2,    3.2,    2.9,    3.0,    2.3,    1.9,    3.4,  999.0,    0.4,    0.7,  999.0,  999.0,  999.0,  999.0,  999.0,  999.0,  999.0,  999.0,  999.0,  999.0,  999.0,  999.0,  999.0,  999.0,  999.0,  999.0,  999.0,  999.0,  999.0,  999.0,  999.0,  999.0,  999.0,  999.0,  999.0,  999.0,  999.0,  999.0,  999.0,  999.0,  999.0,  999.0
1998/10/09 05:20,  999.0,  999.0,  999.0,  999.0,  999.0,  999.0,   -0.8,    0.5,    2.4,    2.7,    2.9,    3.3,    3.3,    2.4,    3.5,    3.7,    2.8,    2.1,   -1.3,   -1.5,   -1.1,  999.0,  999.0,  999.0,  999.0,  999.0,  999.0,  999.0,  999.0,  999.0,  999.0,  999.0,  999.0,  999.0,  999.0,  999.0,  999.0,  999.0,  999.0,  999.0,  999.0,  999.0,  999.0,  999.0,  999.0,  999.0,  999.0,  999.0,  999.0,  999.0,  999.0,  999.0
1998/10/09 05:30,  999.0,  999.0,  999.0,  999.0,  999.0,  999.0,  999.0,    1.4,    2.6,    1.3,    1.9,    1.7,    2.8,    0.7,    2.3,    4.0,   -0.1,    1.5,    1.1,    0.4,   -0.8,  999.0,  999.0,  999.0,  999.0,  999.0,  999.0,  999.0,  999.0,  999.0,  999.0,  999.0,  999.0,  999.0,  999.0,  999.0,  999.0,  999.0,  999.0,  999.0,  999.0,  999.0,  999.0,  999.0,  999.0,  999.0,  999.0,  999.0,  999.0,  999.0,  999.0,  999.0
1998/10/09 05:40,  999.0,  999.0,  999.0,  999.0,  999.0,  999.0,   -0.7,    3.4,    3.9,    0.9,    4.7,    5.5,    4.0,    3.1,    2.0,    3.2,    1.7,    1.1,    0.4,    0.1,  999.0,  999.0,  999.0,  999.0,  999.0,  999.0,  999.0,  999.0,  999.0,  999.0,  999.0,  999.0,  999.0,  999.0,  999.0,  999.0,  999.0,  999.0,  999.0,  999.0,  999.0,  999.0,  999.0,  999.0,  999.0,  999.0,  999.0,  999.0,  999.0,  999.0,  999.0,  999.0
1998/10/09 05:50,  999.0,  999.0,  999.0,  999.0,  999.0,   -1.0,    2.5,    2.8,    2.9,    4.3,    4.8,    4.3,    4.1,    3.9,    4.0,    3.9,    4.9,  999.0,    0.9,  999.0,    0.2,  999.0,  999.0,  999.0,  999.0,  999.0,  999.0,  999.0,  999.0,  999.0,  999.0,  999.0,  999.0,  999.0,  999.0,  999.0,  999.0,  999.0,  999.0,  999.0,  999.0,  999.0,  999.0,  999.0,  999.0,  999.0,  999.0,  999.0,  999.0,  999.0,  999.0,  999.0
1998/10/09 06:00,  999.0,  999.0,  999.0,  999.0,  999.0,  999.0,    3.0,    3.4,    4.4,    4.5,    4.0,    4.2,    3.9,    3.7,    2.6,    3.0,    3.5,    3.9,    1.9,    0.9,    0.2,    0.5,    1.0,  999.0,  999.0,  999.0,   -0.9,   -0.8,  999.0,  999.0,  999.0,  999.0,  999.0,  999.0,  999.0,  999.0,  999.0,  999.0,   -0.9,   -0.5,  999.0,  999.0,  999.0,  999.0,  999.0,  999.0,  999.0,  999.0,   -1.0,   -1.0,  999.0,  999.0
1998/10/09 06:10,  999.0,  999.0,  999.0,  999.0,  999.0,    1.3,    3.1,    3.3,    4.1,    4.6,    5.0,    5.0,    4.4,    4.5,    3.1,    3.6,    3.8,    3.6,    2.8,    0.9,    1.0,  999.0,  999.0,  999.0,  999.0,   -2.0,   -0.8,  999.0,  999.0,  999.0,  999.0,  999.0,  999.0,  999.0,  999.0,  999.0,  999.0,   -1.0,   -1.7,  999.0,  999.0,  999.0,  999.0,  999.0,  999.0,  999.0,  999.0,  999.0,  999.0,   -1.8,  999.0,  999.0
1998/10/09 06:20,  999.0,  999.0,  999.0,  999.0,  999.0,  999.0,    3.4,    3.3,    4.2,    4.4,    4.4,    4.4,    4.4,    3.7,    3.3,    3.9,    3.3,    2.4,    1.3,    1.0,    1.1,    0.1,   -0.4,    0.4,  999.0,  999.0,  999.0,  999.0,  999.0,  999.0,  999.0,  999.0,  999.0,  999.0,  999.0,  999.0,  999.0,  999.0,  999.0,  999.0,  999.0,  999.0,  999.0,  999.0,  999.0,  999.0,  999.0,  999.0,  999.0,    0.1,  999.0,  999.0
1998/10/09 06:30,  999.0,  999.0,  999.0,  999.0,  999.0,  999.0,    3.7,    3.7,    3.7,    3.3,    3.7,    3.9,    3.9,    3.3,    3.5,    4.1,    3.2,    2.1,    1.8,    1.8,    1.3,    0.4,  999.0,    1.5,    1.8,  999.0,  999.0,  999.0,  999.0,  999.0,  999.0,  999.0,  999.0,  999.0,  999.0,  999.0,  999.0,  999.0,   -0.1,  999.0,  999.0,  999.0,  999.0,  999.0,  999.0,  999.0,  999.0,  999.0,   -0.1,  999.0,  999.0,  999.0
1998/10/09 06:40,  999.0,  999.0,  999.0,  999.0,  999.0,  999.0,    2.2,    2.4,    2.6,    2.9,    3.2,    3.0,    3.0,    2.7,    3.2,    2.6,    2.3,    1.5,    0.8,    1.7,  999.0,  999.0,  999.0,  999.0,  999.0,   -0.2,   -0.3,   -0.2,  999.0,  999.0,  999.0,  999.0,  999.0,  999.0,  999.0,  999.0,  999.0,  999.0,    0.4,  999.0,  999.0,  999.0,  999.0,  999.0,  999.0,  999.0,  999.0,  999.0,  999.0,    1.5,    3.1,  999.0
1998/10/09 06:50,  999.0,  999.0,  999.0,  999.0,  999.0,    0.3,    1.2,    1.5,    1.9,    2.2,    2.2,    2.5,    3.0,    2.8,    3.2,    3.3,    3.2,    3.2,    3.1,    3.3,  999.0,  999.0,  999.0,  999.0,    2.4,  999.0,    0.0,  999.0,  999.0,  999.0,  999.0,  999.0,  999.0,  999.0,  999.0,  999.0,  999.0,    0.3,    0.3,    0.3,  999.0,  999.0,  999.0,  999.0,  999.0,  999.0,  999.0,  999.0,    2.3,    2.0,    1.7,    3.7
1998/10/09 07:00,  999.0,  999.0,  999.0,  999.0,  999.0,  999.0,    1.8,    1.8,    2.1,    2.5,    2.6,    2.9,    3.5,    3.5,    3.8,    3.0,    3.1,    2.8,    2.5,  999.0,  999.0,  999.0,  999.0,  999.0,  999.0,  999.0,  999.0,  999.0,  999.0,  999.0,    0.2,  999.0,    0.7,  999.0,    0.6,  999.0,  999.0,    1.3,    1.2,  999.0,  999.0,  999.0,  999.0,  999.0,  999.0,  999.0,  999.0,  999.0,    2.9,    2.4,  999.0,  999.0
1998/10/09 07:10,  999.0,  999.0,  999.0,  999.0,  999.0,  999.0,  999.0,    1.8,    2.3,    3.3,    3.8,    3.5,    3.3,    2.7,    3.2,    3.0,    1.6,    1.7,    1.9,    0.9,    1.0,    1.6,    1.3,    2.8,    1.4,    0.2,    0.4,  999.0,  999.0,    0.0,   -0.3,   -0.0,    0.0,  999.0,  999.0,  999.0,  999.0,    1.0,    0.1,    0.1,  999.0,  999.0,  999.0,  999.0,  999.0,  999.0,  999.0,  999.0,   -0.0,    0.2,  999.0,  999.0
1998/10/09 07:20,  999.0,  999.0,  999.0,  999.0,  999.0,  999.0,    2.0,    2.1,    2.7,    2.8,    3.6,    3.4,    2.9,    3.4,    3.8,  999.0,    2.6,    2.2,    1.6,    0.8,    0.6,    0.6,    1.7,    1.3,   -0.0,   -0.7,   -0.2,   -0.1,  999.0,  999.0,   -0.4,  999.0,   -0.2,  999.0,   -0.1,  999.0,  999.0,    0.1,   -0.4,   -0.1,  999.0,  999.0,  999.0,  999.0,  999.0,  999.0,  999.0,  999.0,   -0.2,   -0.2,  999.0,  999.0
1998/10/09 07:30,  999.0,  999.0,  999.0,  999.0,  999.0,  999.0,  999.0,    2.5,    2.5,    3.2,    3.5,    2.9,    2.9,    3.0,  999.0,    3.5,    2.3,    1.3,    1.4,    1.3,    0.9,    1.3,    0.9,    1.3,    0.5,    0.6,    0.5,    0.8,    0.2,  999.0,   -0.0,    0.0,   -0.2,   -0.4,   -1.0,  999.0,  999.0,    0.3,   -0.5,   -0.4,  999.0,  999.0,  999.0,  999.0,  999.0,  999.0,  999.0,  999.0,    0.4,    0.2,  999.0,  999.0
1998/10/09 07:40,  999.0,  999.0,  999.0,  999.0,  999.0,  999.0,  999.0,    2.3,    2.6,    3.1,    2.9,    1.7,    1.8,    1.4,    0.9,  999.0,    1.8,    1.1,    1.0,    1.3,    0.8,    0.9,    1.0,    0.5,   -0.1,    0.1,    1.8,    2.3,    0.3,   -0.3,   -0.4,   -0.7,   -0.5,  999.0,  999.0,  999.0,  999.0,    0.2,    0.0,  999.0,  999.0,  999.0,  999.0,  999.0,  999.0,  999.0,  999.0,  999.0,  999.0,    0.3,  999.0,  999.0
1998/10/09 07:50,  999.0,  999.0,  999.0,  999.0,  999.0,  999.0,  999.0,    1.9,    2.2,    2.9,    2.8,    1.1,    0.5,    0.2,    0.4,  999.0,    1.4,    0.8,    0.2,    0.5,    0.1,    0.7,    0.7,    0.7,    0.8,   -0.3,   -0.1,  999.0,  999.0,   -0.8,   -0.0,  999.0,  999.0,   -0.7,  999.0,  999.0,  999.0,    0.2,    0.3,  999.0,  999.0,  999.0,  999.0,  999.0,  999.0,  999.0,  999.0,  999.0,    1.1,    0.5,  999.0,  999.0
1998/10/09 08:00,  999.0,  999.0,  999.0,  999.0,  999.0,  999.0,    0.5,    1.6,    1.2,    2.1,    1.3,    1.1,    1.2,    0.9,  999.0,    3.9,    2.5,    1.3,    0.4,   -0.2,  999.0,  999.0,    0.5,  999.0,    0.5,    0.2,    0.0,  999.0,  999.0,   -0.2,   -0.6,  999.0,  999.0,    0.2,    0.5,   -0.2,  999.0,    0.2,    0.5,  999.0,  999.0,  999.0,  999.0,  999.0,  999.0,  999.0,  999.0,  999.0,  999.0,   -0.0,  999.0,  999.0
1998/10/09 08:10,  999.0,  999.0,  999.0,  999.0,  999.0,  999.0,  999.0,    2.4,    2.8,    3.0,    2.8,    3.3,    3.4,    2.6,  999.0,    4.7,    3.7,    2.1,    1.4,    1.0,  999.0,  999.0,    0.6,    0.9,    1.0,    1.2,    1.0,  999.0,  999.0,  999.0,  999.0,  999.0,  999.0,  999.0,   -0.4,  999.0,  999.0,  999.0,    0.3,  999.0,  999.0,  999.0,  999.0,  999.0,  999.0,  999.0,  999.0,  999.0,  999.0,    0.1,  999.0,  999.0
1998/10/09 08:20,  999.0,  999.0,  999.0,  999.0,  999.0,  999.0,    3.2,    2.8,    2.7,    2.6,    2.1,    2.3,    2.8,    3.6,    3.2,    4.7,    4.0,    3.0,    2.2,    2.5,  999.0,  999.0,    0.8,    1.7,    0.7,    0.1,    0.2,  999.0,  999.0,   -0.6,   -0.3,  999.0,  999.0,  999.0,  999.0,  999.0,  999.0,   -0.2,   -0.6,   -0.4,  999.0,  999.0,  999.0,  999.0,  999.0,  999.0,  999.0,  999.0,  999.0,  999.0,  999.0,  999.0
1998/10/09 08:30,  999.0,  999.0,  999.0,  999.0,  999.0,  999.0,  999.0,    2.9,    3.1,    3.3,    3.4,    3.3,    3.3,    3.6,    4.8,    5.0,    5.2,    3.5,    2.7,    2.4,    2.5,  999.0,    1.8,    1.2,    1.2,    0.9,    0.5,  999.0,  999.0,  999.0,  999.0,  999.0,  999.0,  999.0,  999.0,  999.0,  999.0,  999.0,    0.3,  999.0,  999.0,  999.0,  999.0,  999.0,  999.0,  999.0,  999.0,  999.0,  999.0,   -0.0,  999.0,  999.0
1998/10/09 08:40,  999.0,  999.0,  999.0,  999.0,  999.0,  999.0,  999.0,    2.7,    2.6,    2.9,    3.2,    3.6,    3.6,    3.7,    4.1,    5.0,    4.5,    3.3,    3.2,    3.1,    2.9,    2.4,    2.9,  999.0,    1.3,    0.4,    0.6,    1.2,  999.0,  999.0,  999.0,  999.0,  999.0,  999.0,  999.0,  999.0,  999.0,    0.6,  999.0,   -0.4,  999.0,  999.0,  999.0,  999.0,  999.0,  999.0,  999.0,  999.0,  999.0,    0.4,  999.0,  999.0
1998/10/09 08:50,  999.0,  999.0,  999.0,  999.0,  999.0,  999.0,    1.9,    1.9,    2.5,    2.8,    2.9,    3.3,    3.6,    3.5,    4.2,    4.8,    5.0,    3.7,    2.7,    2.4,    2.6,    3.1,  999.0,  999.0,    1.3,    1.0,   -0.0,    0.2,  999.0,  999.0,  999.0,  999.0,  999.0,  999.0,  999.0,  999.0,  999.0,  999.0,  999.0,  999.0,  999.0,  999.0,  999.0,  999.0,  999.0,  999.0,  999.0,  999.0,  999.0,  999.0,  999.0,  999.0
1998/10/09 09:00,  999.0,  999.0,  999.0,  999.0,  999.0,  999.0,    2.2,    2.3,    2.9,    2.9,    3.3,    2.7,    2.7,    2.4,    3.5,    4.2,    3.8,    2.7,    2.3,    2.6,    2.7,    1.3,  999.0,  999.0,  999.0,  999.0,    0.8,  999.0,  999.0,  999.0,  999.0,  999.0,  999.0,  999.0,  999.0,  999.0,  999.0,  999.0,  999.0,  999.0,  999.0,  999.0,  999.0,  999.0,  999.0,  999.0,  999.0,  999.0,  999.0,    0.3,  999.0,  999.0
1998/10/09 09:10,  999.0,  999.0,  999.0,  999.0,  999.0,   -0.7,    1.0,    1.7,    2.8,    2.9,    2.8,    2.9,    3.0,    3.1,    3.5,    3.9,    3.6,    2.5,    2.5,    2.7,    1.3,    0.9,  999.0,    0.5,  999.0,  999.0,  999.0,  999.0,  999.0,  999.0,  999.0,  999.0,  999.0,  999.0,  999.0,  999.0,  999.0,  999.0,  999.0,  999.0,  999.0,  999.0,  999.0,  999.0,  999.0,  999.0,  999.0,  999.0,  999.0,  999.0,  999.0,  999.0
1998/10/09 09:20,  999.0,  999.0,  999.0,  999.0,  999.0,  999.0,    2.5,    2.8,    3.4,    3.3,    3.1,    3.1,    3.3,    3.4,    3.4,    3.7,    2.3,    2.4,    1.7,    2.1,  999.0,    0.9,  999.0,    0.5,  999.0,  999.0,  999.0,  999.0,  999.0,  999.0,  999.0,  999.0,  999.0,  999.0,  999.0,  999.0,  999.0,  999.0,  999.0,  999.0,  999.0,  999.0,  999.0,  999.0,  999.0,  999.0,  999.0,  999.0,  999.0,  999.0,  999.0,  999.0
1998/10/09 09:30,  999.0,  999.0,  999.0,  999.0,  999.0,    1.2,    1.1,    1.3,    2.1,    2.3,    2.5,    2.7,    3.0,    3.3,    3.3,    2.7,    1.9,    1.3,    1.4,    1.5,    1.5,    2.4,    1.7,    1.0,  999.0,  999.0,  999.0,  999.0,  999.0,  999.0,  999.0,  999.0,  999.0,  999.0,  999.0,  999.0,  999.0,  999.0,  999.0,  999.0,  999.0,  999.0,  999.0,  999.0,  999.0,  999.0,  999.0,  999.0,  999.0,  999.0,  999.0,  999.0
1998/10/09 09:40,  999.0,  999.0,  999.0,  999.0,  999.0,   -0.6,    0.5,    0.8,    1.4,    2.1,    2.5,    2.8,    3.0,    3.4,    3.8,    3.5,    2.5,    2.1,    2.1,    1.9,    2.4,    1.6,    2.0,    2.0,    1.5,  999.0,  999.0,  999.0,  999.0,  999.0,  999.0,  999.0,  999.0,  999.0,  999.0,  999.0,  999.0,  999.0,  999.0,  999.0,  999.0,  999.0,  999.0,  999.0,  999.0,  999.0,  999.0,    0.0,  999.0,  999.0,  999.0,  999.0
1998/10/09 09:50,  999.0,  999.0,  999.0,  999.0,  999.0,  999.0,    1.1,    1.2,    1.3,    1.2,    1.7,    2.0,    2.5,    2.8,    3.6,    4.3,    3.2,    2.7,    2.5,    1.2,    0.8,  999.0,    0.6,    0.8,    1.4,    0.7,    0.9,    1.0,  999.0,  999.0,  999.0,  999.0,  999.0,  999.0,  999.0,  999.0,  999.0,  999.0,    0.4,  999.0,  999.0,  999.0,  999.0,  999.0,  999.0,  999.0,  999.0,  999.0,  999.0,  999.0,  999.0,  999.0
1998/10/09 10:00,  999.0,  999.0,  999.0,  999.0,  999.0,  999.0,    1.7,    1.8,    1.8,    1.0,    0.4,    1.4,    2.1,    2.8,    3.9,    4.3,    3.1,    2.5,    2.8,    1.5,    1.6,    1.4,    0.9,    0.6,    0.6,    0.6,   -0.0,  999.0,  999.0,  999.0,  999.0,  999.0,  999.0,  999.0,  999.0,  999.0,  999.0,  999.0,    0.2,  999.0,  999.0,  999.0,  999.0,  999.0,  999.0,  999.0,  999.0,  999.0,  999.0,  999.0,  999.0,  999.0
1998/10/09 10:10,  999.0,  999.0,  999.0,  999.0,  999.0,  999.0,    0.6,    1.4,    1.4,    0.5,    1.3,    2.1,    2.7,    3.1,    4.0,    4.3,    4.1,    2.7,    2.7,    2.1,    2.1,    1.7,    1.4,    1.0,    0.4,   -0.1,  999.0,  999.0,  999.0,  999.0,    0.1,  999.0,  999.0,  999.0,  999.0,  999.0,  999.0,  999.0,   -0.5,   -1.1,  999.0,  999.0,  999.0,  999.0,  999.0,  999.0,  999.0,  999.0,  999.0,  999.0,  999.0,  999.0
1998/10/09 10:20,  999.0,  999.0,  999.0,  999.0,  999.0,   -1.1,    0.5,    1.1,    0.4,    0.3,    1.3,    2.6,    3.4,    4.1,    4.6,    5.0,    4.6,    3.1,    2.7,    2.2,    2.5,    2.2,    2.1,    2.4,  999.0,    1.1,    1.9,    2.0,  999.0,    0.6,    0.2,  999.0,  999.0,  999.0,  999.0,  999.0,  999.0,    0.5,    0.2,  999.0,  999.0,  999.0,  999.0,  999.0,  999.0,    0.6,  999.0,  999.0,  999.0,    1.0,    1.1,    1.0
1998/10/09 10:30,  999.0,  999.0,  999.0,  999.0,  999.0,   -1.4,    1.3,    2.3,    1.6,    0.2,   -0.1,    0.2,    1.2,    2.5,    3.1,    3.8,    4.0,    3.5,    2.2,    2.2,    1.7,    1.8,    1.6,  999.0,    0.4,    0.7,    0.5,    0.5,  999.0,   -0.8,  999.0,  999.0,  999.0,  999.0,  999.0,  999.0,  999.0,   -0.4,  999.0,  999.0,  999.0,  999.0,  999.0,  999.0,  999.0,  999.0,  999.0,  999.0,  999.0,  999.0,  999.0,  999.0
1998/10/09 10:40,  999.0,  999.0,  999.0,  999.0,  999.0,  999.0,    0.3,    1.1,    0.8,   -0.0,   -0.5,   -0.2,    2.2,    3.5,    4.1,    5.0,    4.7,    4.1,    1.3,    0.9,    1.2,    1.4,    1.7,    1.3,  999.0,   -0.4,   -0.5,    0.5,    1.0,  999.0,   -0.4,  999.0,  999.0,    0.2,  999.0,  999.0,  999.0,  999.0,  999.0,  999.0,  999.0,  999.0,  999.0,  999.0,  999.0,  999.0,  999.0,  999.0,  999.0,  999.0,  999.0,  999.0
1998/10/09 10:50,  999.0,  999.0,  999.0,  999.0,  999.0,   -0.9,    1.4,    1.6,    2.3,    0.8,    0.6,    1.2,    2.7,    3.2,    3.8,    4.8,    4.4,    3.0,    1.6,    1.4,  999.0,    0.6,    0.3,    0.5,    0.2,    0.3,   -1.0,    0.1,  999.0,    1.3,   -0.3,  999.0,  999.0,  999.0,  999.0,  999.0,  999.0,  999.0,  999.0,  999.0,  999.0,  999.0,  999.0,  999.0,  999.0,  999.0,  999.0,  999.0,  999.0,  999.0,  999.0,  999.0
1998/10/09 11:00,  999.0,  999.0,  999.0,  999.0,  999.0,    1.2,    1.0,    1.4,    1.8,    0.9,   -0.2,    0.2,    2.0,    2.9,    3.7,    4.5,    3.1,    1.6,    1.3,    1.1,  999.0,   -0.4,   -0.0,    0.9,    0.0,   -0.1,   -0.5,    0.1,   -0.0,  999.0,    0.3,  999.0,  999.0,  999.0,   -0.4,  999.0,  999.0,   -0.1,    0.3,    0.1,  999.0,  999.0,  999.0,  999.0,  999.0,  999.0,  999.0,  999.0,  999.0,  999.0,  999.0,  999.0
1998/10/09 11:10,  999.0,  999.0,  999.0,  999.0,  999.0,    5.1,    1.4,    1.1,    2.0,    1.5,    0.3,    0.8,    2.3,    3.1,    4.0,    3.8,    2.6,    1.9,    2.9,  999.0,    1.0,    0.2,    0.3,    0.7,    0.4,    0.8,    0.3,   -0.4,  999.0,  999.0,  999.0,  999.0,  999.0,  999.0,    0.4,  999.0,  999.0,  999.0,    0.0,  999.0,  999.0,  999.0,  999.0,  999.0,  999.0,  999.0,  999.0,  999.0,  999.0,  999.0,  999.0,  999.0
1998/10/09 11:20,  999.0,  999.0,  999.0,  999.0,  999.0,  999.0,   -0.6,   -0.1,   -0.1,    0.1,    0.0,    0.4,    1.9,    3.5,    4.4,    4.6,    2.3,    2.3,    2.9,  999.0,  999.0,    0.7,    0.8,    1.4,    0.6,    0.2,   -0.3,   -0.6,   -0.0,  999.0,  999.0,  999.0,  999.0,  999.0,  999.0,  999.0,  999.0,  999.0,  999.0,  999.0,  999.0,  999.0,  999.0,  999.0,  999.0,  999.0,  999.0,  999.0,  999.0,  999.0,  999.0,  999.0
1998/10/09 11:30,  999.0,  999.0,  999.0,  999.0,  999.0,  999.0,    0.5,    1.4,    3.3,    1.1,   -0.6,   -1.2,    0.5,    1.4,    2.7,    3.3,    1.7,    1.7,    2.4,  999.0,    1.1,    1.0,    0.9,    0.3,   -0.1,   -0.0,   -0.0,    0.2,  999.0,  999.0,   -0.1,  999.0,  999.0,  999.0,  999.0,  999.0,  999.0,  999.0,    0.1,  999.0,  999.0,  999.0,  999.0,  999.0,  999.0,  999.0,  999.0,  999.0,  999.0,  999.0,  999.0,  999.0
1998/10/09 11:40,  999.0,  999.0,  999.0,  999.0,  999.0,  999.0,    2.4,    1.9,    2.4,    0.3,   -0.4,    0.3,    1.0,    2.3,    2.6,    1.4,    1.3,    2.3,    2.6,    0.7,    0.2,    0.4,   -0.2,   -0.3,   -0.1,   -0.2,    0.4,   -0.2,   -0.1,    0.3,   -0.2,    0.4,  999.0,  999.0,   -0.5,   -0.3,  999.0,   -0.5,   -0.8,  999.0,  999.0,  999.0,  999.0,  999.0,  999.0,  999.0,  999.0,  999.0,  999.0,  999.0,  999.0,  999.0
1998/10/09 11:50,  999.0,  999.0,  999.0,  999.0,  999.0,  999.0,   -0.4,   -0.5,   -1.0,   -1.1,   -1.2,   -0.4,    0.4,    1.7,    2.5,    1.5,    0.9,    1.6,    2.0,    0.6,   -0.2,   -0.3,   -0.8,   -1.5,   -0.9,   -0.6,   -0.4,    0.4,   -0.0,    0.2,   -0.4,  999.0,   -0.1,    0.4,   -0.3,    0.1,  999.0,   -0.2,  999.0,  999.0,  999.0,  999.0,  999.0,  999.0,  999.0,  999.0,  999.0,  999.0,  999.0,    0.5,  999.0,  999.0
1998/10/09 12:00,  999.0,  999.0,  999.0,  999.0,  999.0,  999.0,   -2.2,   -2.7,   -0.4,   -0.3,   -0.6,    0.0,    0.9,    1.8,    1.6,    1.6,    0.7,    0.9,    1.3,    0.4,   -0.5,   -0.4,   -0.7,   -1.5,   -0.6,   -0.1,    0.2,    0.0,  999.0,    0.0,   -0.0,  999.0,   -0.3,   -0.0,  999.0,  999.0,   -0.5,   -0.8,  999.0,   -0.2,  999.0,  999.0,  999.0,  999.0,  999.0,  999.0,  999.0,  999.0,  999.0,  999.0,  999.0,  999.0
1998/10/09 12:10,  999.0,  999.0,  999.0,  999.0,  999.0,   -0.9,   -1.2,    0.2,    0.8,    1.6,    1.1,    0.1,    0.7,    2.0,    2.5,    2.1,    1.7,    2.3,    2.4,    1.2,    0.4,    0.2,   -0.4,   -0.0,   -0.1,    0.3,    0.1,   -0.2,    0.3,   -0.1,   -0.0,   -0.0,   -0.3,    0.2,   -0.0,   -0.2,  999.0,    0.3,   -0.0,   -0.0,  999.0,  999.0,  999.0,  999.0,  999.0,  999.0,  999.0,  999.0,  999.0,   -0.2,  999.0,  999.0
1998/10/09 12:20,  999.0,  999.0,  999.0,  999.0,  999.0,  999.0,   -0.9,   -0.6,    0.1,    0.4,   -0.3,   -1.3,   -0.4,    1.4,    1.7,    1.8,    0.8,    2.1,    2.5,    0.8,   -0.9,   -0.3,   -0.1,    0.4,  999.0,    0.0,   -0.3,   -0.0,  999.0,   -0.2,   -0.5,  999.0,   -0.7,   -0.3,  999.0,  999.0,  999.0,    0.2,   -0.4,    0.5,  999.0,  999.0,  999.0,  999.0,  999.0,  999.0,  999.0,  999.0,  999.0,    0.4,  999.0,  999.0
1998/10/09 12:30,  999.0,  999.0,  999.0,  999.0,  999.0,   -1.7,   -1.0,   -1.3,   -2.2,   -1.8,   -1.9,   -1.5,   -0.8,    0.3,    1.2,    1.2,    1.2,    1.4,    1.9,    1.0,   -0.5,   -0.6,    0.0,    0.1,  999.0,    0.1,    0.4,   -0.3,    0.5,    0.2,    0.4,  999.0,    0.6,   -0.6,  999.0,  999.0,  999.0,  999.0,    0.7,    0.2,  999.0,  999.0,  999.0,  999.0,  999.0,  999.0,  999.0,  999.0,  999.0,   -0.0,  999.0,  999.0
1998/10/09 12:40,  999.0,  999.0,  999.0,  999.0,  999.0,  999.0,  999.0,   -1.2,   -1.2,   -1.0,   -1.1,   -1.5,   -1.0,   -0.1,    0.3,    1.1,    1.0,    1.6,    2.6,  999.0,  999.0,   -0.7,   -0.2,   -0.5,   -0.1,    0.5,    0.2,    0.1,  999.0,    0.2,    0.2,    0.0,    0.3,   -0.4,  999.0,  999.0,   -0.7,    0.0,   -0.7,  999.0,  999.0,  999.0,  999.0,  999.0,  999.0,  999.0,  999.0,  999.0,   -0.2,   -0.3,  999.0,  999.0
1998/10/09 12:50,  999.0,  999.0,  999.0,  999.0,  999.0,   -0.4,   -1.8,   -1.5,   -1.1,    0.3,    1.2,    0.2,    0.1,    0.5,    1.0,    1.0,    1.7,    1.4,    1.2,    0.6,    0.2,   -0.2,   -0.1,   -0.3,   -0.3,   -0.1,    0.1,   -0.2,   -0.2,   -0.0,   -0.2,  999.0,  999.0,  999.0,   -0.1,  999.0,   -0.1,    0.0,   -0.1,   -0.0,  999.0,  999.0,  999.0,  999.0,  999.0,  999.0,  999.0,  999.0,   -0.1,    0.5,  999.0,  999.0
1998/10/09 13:00,  999.0,  999.0,  999.0,  999.0,  999.0,   -1.1,   -1.3,   -1.3,   -0.8,   -0.6,    0.6,    0.8,    0.8,    1.5,    1.9,    1.6,    1.7,  999.0,    1.1,    0.7,    0.5,    0.7,    0.1,   -0.0,   -0.4,    0.2,   -0.3,   -0.3,   -0.7,    0.6,   -0.2,    0.3,   -0.3,   -0.4,    0.1,   -0.3,    0.1,   -0.2,    0.2,    0.2,  999.0,  999.0,  999.0,  999.0,  999.0,  999.0,  999.0,  999.0,  999.0,    0.4,  999.0,  999.0
1998/10/09 13:10,  999.0,  999.0,  999.0,  999.0,  999.0,   -2.7,   -0.4,   -0.5,   -0.8,   -0.0,    0.3,    1.5,    1.2,    1.2,    1.3,    0.5,    1.6,    1.9,    2.0,    0.7,   -0.4,    0.5,    0.4,    0.3,   -0.4,   -0.4,    0.1,   -0.0,  999.0,    0.6,   -0.3,  999.0,    0.1,    0.3,   -0.1,   -0.0,  999.0,  999.0,   -0.3,  999.0,  999.0,  999.0,  999.0,  999.0,  999.0,  999.0,  999.0,    0.2,   -0.4,  999.0,  999.0,  999.0
1998/10/09 13:20,  999.0,  999.0,  999.0,  999.0,  999.0,   -1.1,   -0.1,   -0.3,   -0.3,   -0.3,    0.4,    1.3,    1.4,    0.4,    0.6,    0.9,    0.6,    1.0,    1.9,    1.3,   -0.1,    0.4,    0.1,    0.1,    0.3,    0.1,   -0.2,   -0.2,   -0.1,   -0.6,   -0.3,   -0.2,    0.4,    0.2,   -0.2,   -0.1,   -0.3,   -0.4,    0.1,   -0.1,  999.0,  999.0,  999.0,  999.0,  999.0,  999.0,  999.0,  999.0,   -0.1,   -0.2,  999.0,  999.0
1998/10/09 13:30,  999.0,  999.0,  999.0,  999.0,  999.0,   -3.9,   -1.1,   -0.8,   -0.6,    0.3,   -0.0,    0.7,    0.8,    1.0,    1.2,    0.9,    0.8,    1.2,    1.3,    0.1,   -0.1,   -0.1,    0.5,   -0.5,   -0.4,    0.1,    0.5,    0.2,  999.0,  999.0,    0.3,  999.0,  999.0,    0.5,    1.4,  999.0,  999.0,    0.2,    0.9,   -0.0,  999.0,  999.0,  999.0,  999.0,  999.0,  999.0,  999.0,    0.6,    0.5,    0.3,  999.0,  999.0
1998/10/09 13:40,  999.0,  999.0,  999.0,  999.0,  999.0,   -4.9,   -3.6,   -3.1,   -1.9,   -0.1,    0.8,    2.2,    3.2,    4.2,    3.8,    3.5,    3.1,    3.4,    2.6,    0.8,    0.2,    0.8,    0.5,    0.1,   -0.4,   -0.1,   -0.3,    0.2,   -0.2,    0.4,   -0.4,   -0.0,  999.0,   -0.2,   -0.3,    0.1,   -0.2,   -0.2,   -0.2,    0.2,  999.0,  999.0,  999.0,  999.0,  999.0,  999.0,    0.0,  999.0,  999.0,   -0.0,  999.0,  999.0
1998/10/09 13:50,  999.0,  999.0,  999.0,  999.0,  999.0,   -1.6,   -1.1,   -1.8,   -2.1,   -2.2,   -0.1,    0.8,    1.7,    2.0,    2.1,    1.7,    1.7,    1.9,    0.9,    0.1,    0.5,    0.7,    0.5,  999.0,   -0.2,   -0.1,   -0.3,    0.1,   -0.2,    0.1,  999.0,    0.1,    0.0,    0.1,   -0.1,   -0.1,    0.1,    0.2,    0.3,   -0.1,  999.0,  999.0,  999.0,  999.0,  999.0,  999.0,   -0.3,  999.0,   -0.2,    0.3,  999.0,  999.0
1998/10/09 14:00,  999.0,  999.0,  999.0,  999.0,  999.0,  999.0,    3.2,  999.0,   -1.4,   -1.9,   -0.2,    0.1,    0.4,    0.5,    0.6,    0.7,    0.6,    1.4,    0.1,    0.5,    1.1,    1.0,    0.2,   -0.2,   -0.2,    0.1,    1.1,    2.3,   -0.3,   -0.1,   -0.0,    0.1,    0.2,    0.1,   -0.1,   -0.0,   -0.2,  999.0,   -0.4,   -0.0,  999.0,  999.0,  999.0,  999.0,  999.0,  999.0,  999.0,  999.0,   -0.2,   -0.4,  999.0,  999.0
1998/10/09 14:10,  999.0,  999.0,  999.0,  999.0,  999.0,   -2.6,  999.0,   -1.5,   -0.6,   -0.4,   -0.7,   -0.2,   -0.2,    0.3,    0.4,    0.2,    0.2,    0.8,    0.7,    0.8,    0.2,    1.1,    1.3,    0.3,    0.2,    0.5,    0.0,   -0.5,    0.1,   -0.5,   -0.3,   -0.4,   -0.6,    0.7,    0.2,    0.3,    0.2,   -0.1,    0.2,  999.0,  999.0,  999.0,  999.0,  999.0,  999.0,  999.0,  999.0,   -0.4,  999.0,   -0.3,   -0.2,  999.0
1998/10/09 14:20,  999.0,  999.0,  999.0,  999.0,  999.0,   -3.7,   -2.3,   -1.8,   -1.4,   -0.8,    0.2,    0.1,    0.4,   -0.2,   -0.6,    0.0,    0.6,    1.1,    1.3,    1.2,    0.8,    1.4,    0.8,    0.4,    0.7,    0.5,    0.3,    0.3,  999.0,   -0.2,   -0.3,   -0.3,   -0.2,   -0.1,    0.3,    0.1,    0.3,    0.3,   -0.1,   -0.1,  999.0,  999.0,  999.0,  999.0,  999.0,  999.0,   -0.2,  999.0,    0.1,  999.0,  999.0,  999.0
1998/10/09 14:30,  999.0,  999.0,  999.0,  999.0,   -2.3,   -3.7,   -2.4,   -1.4,   -1.9,   -0.3,    0.5,    0.4,   -0.5,   -0.2,    0.4,    0.4,    0.7,    0.3,    0.3,   -0.5,   -0.4,    0.4,    0.7,    0.6,    0.9,    0.8,   -0.2,    0.4,   -0.2,   -0.4,   -0.1,   -0.1,    0.3,    0.0,   -0.0,    0.6,    0.0,   -0.0,    0.2,    0.7,  999.0,  999.0,  999.0,  999.0,  999.0,  999.0,  999.0,   -0.0,    0.1,   -0.2,  999.0,  999.0
1998/10/09 14:40,  999.0,  999.0,  999.0,  999.0,   -2.7,   -2.1,   -1.1,   -0.8,   -0.1,    0.4,    0.3,    0.5,    0.6,    0.9,    0.8,    0.8,    0.3,  999.0,    0.6,   -0.2,    0.0,    1.0,    1.0,    1.0,    0.9,    1.0,    0.5,   -0.3,   -0.3,   -0.2,    0.2,    0.0,   -0.1,   -0.1,   -0.4,    0.9,   -0.0,   -0.5,   -0.3,    0.3,  999.0,  999.0,  999.0,  999.0,  999.0,  999.0,   -0.5,  999.0,    0.0,  999.0,  999.0,  999.0
1998/10/09 14:50,  999.0,  999.0,  999.0,  999.0,  999.0,   -0.9,   -0.4,    0.1,    0.5,    0.7,    1.0,    0.9,    1.2,    1.7,    1.6,    1.2,    1.3,    1.7,    1.0,    0.0,    0.8,    0.8,    0.9,    1.0,    1.3,    0.5,    0.5,    0.0,   -0.1,    0.0,    0.2,    0.3,   -0.4,   -0.2,   -0.3,   -0.4,    0.0,   -0.1,   -0.1,   -0.4,  999.0,  999.0,  999.0,  999.0,  999.0,  999.0,  999.0,  999.0,   -0.5,    0.2,  999.0,  999.0
1998/10/09 15:00,  999.0,  999.0,  999.0,  999.0,   -0.6,   -1.5,   -2.3,  999.0,   -0.1,    0.8,    1.1,    1.4,    1.5,    1.5,    1.3,    1.2,    0.5,    0.3,    0.4,    0.1,   -0.4,    0.4,    0.8,    1.3,    1.2,    0.8,    0.4,    0.0,  999.0,   -0.2,   -0.2,   -0.1,   -0.1,    0.0,    0.0,  999.0,   -0.3,    0.4,    0.8,  999.0,  999.0,  999.0,  999.0,  999.0,  999.0,  999.0,  999.0,  999.0,  999.0,   -0.4,  999.0,  999.0
1998/10/09 15:10,  999.0,  999.0,  999.0,  999.0,   -1.5,   -2.7,   -2.5,   -2.8,   -2.3,   -0.6,   -0.4,   -0.0,    1.0,    1.4,    1.3,    1.2,    1.0,    0.6,   -1.3,   -0.7,   -1.3,   -0.1,    0.2,    0.7,    1.2,    0.6,    0.3,   -0.3,   -0.1,    0.0,   -0.0,    0.3,    0.1,    0.2,    0.1,    0.1,    0.2,    0.5,    0.5,   -0.1,  999.0,  999.0,  999.0,  999.0,  999.0,  999.0,  999.0,  999.0,    0.2,  999.0,  999.0,  999.0
1998/10/09 15:20,  999.0,  999.0,  999.0,  999.0,  999.0,   -5.7,   -1.5,   -1.7,   -1.3,   -0.8,   -0.6,    0.1,    0.8,    1.1,    1.8,    2.3,    2.8,    1.9,    0.3,    0.1,   -0.3,   -0.1,    0.3,    0.1,    0.4,    0.1,   -0.1,    0.2,   -0.3,   -0.6,    0.3,   -0.1,    0.1,   -0.1,   -0.2,   -0.1,  999.0,   -0.4,    0.1,   -0.0,  999.0,  999.0,  999.0,  999.0,  999.0,  999.0,    0.1,  999.0,    0.1,  999.0,  999.0,  999.0
1998/10/09 15:30,  999.0,  999.0,  999.0,  999.0,  999.0,   -4.2,   -2.4,   -2.3,   -2.0,   -1.5,   -1.3,   -1.1,   -0.9,   -1.1,   -0.1,   -0.4,    0.6,    0.9,    0.5,  999.0,   -0.6,   -0.5,   -0.6,    0.1,    1.2,    1.1,    0.5,    0.5,  999.0,   -0.2,   -0.2,   -0.1,   -0.1,    0.2,    0.7,    0.0,    0.1,    0.3,    0.2,   -0.0,   -0.8,  999.0,  999.0,  999.0,  999.0,  999.0,    0.3,  999.0,    0.1,    0.0,    0.3,  999.0
1998/10/09 15:40,  999.0,  999.0,  999.0,  999.0,  999.0,  999.0,   -0.4,   -1.1,   -1.0,   -1.8,   -1.3,   -0.7,   -0.5,   -0.1,    0.1,    0.5,    0.9,    0.6,    0.0,   -0.5,   -0.5,    0.1,    0.1,    0.5,    1.1,    1.0,    1.3,    0.9,  999.0,    0.3,  999.0,   -0.7,   -0.2,  999.0,    0.1,   -0.0,    0.3,   -0.3,    0.3,    0.1,  999.0,  999.0,  999.0,  999.0,  999.0,  999.0,  999.0,   -0.4,   -0.1,   -0.2,  999.0,  999.0
1998/10/09 15:50,  999.0,  999.0,  999.0,  999.0,  999.0,  999.0,   -1.3,   -0.1,   -2.8,   -2.0,   -1.4,   -1.0,   -0.3,    0.9,    1.4,    2.2,    2.6,    2.6,    2.0,    0.9,    1.4,   -0.5,    0.6,    1.5,    1.4,    1.2,    0.9,    0.0,    0.2,    0.3,   -0.1,   -0.5,    0.1,    0.1,    0.3,    0.2,    0.1,    0.1,   -0.2,  999.0,  999.0,  999.0,  999.0,  999.0,  999.0,  999.0,  999.0,  999.0,  999.0,    0.1,  999.0,  999.0
1998/10/09 16:00,  999.0,  999.0,  999.0,  999.0,  999.0,  999.0,  999.0,  999.0,    0.5,   -0.9,   -0.3,   -0.4,    0.8,    1.5,    1.7,    3.1,    3.9,    1.8,    1.1,   -0.3,    0.1,   -0.7,   -0.1,    1.1,    1.9,    0.8,    0.9,    1.7,    0.9,    0.7,    0.5,    0.3,    0.5,  999.0,    0.6,  999.0,  999.0,    0.5,   -0.3,   -0.5,  999.0,  999.0,  999.0,  999.0,  999.0,  999.0,    0.4,    0.6,   -0.0,  999.0,  999.0,  999.0
1998/10/09 16:10,  999.0,  999.0,  999.0,  999.0,  999.0,  999.0,   -1.2,   -0.8,   -0.5,   -0.4,   -1.1,   -0.1,    2.0,    2.7,    2.4,    1.8,    2.0,    1.2,   -0.0,    0.3,   -2.0,    0.3,    1.2,    2.4,    2.0,    0.8,    1.3,    1.1,   -0.2,    0.3,    0.3,  999.0,  999.0,    0.6,    0.0,    0.1,    0.2,  999.0,    0.3,    0.2,  999.0,  999.0,  999.0,  999.0,  999.0,  999.0,  999.0,  999.0,    0.5,    0.2,  999.0,  999.0
1998/10/09 16:20,  999.0,  999.0,  999.0,  999.0,  999.0,   -2.0,   -0.7,   -0.1,   -0.8,   -0.9,   -0.2,    0.0,   -0.5,    3.4,    4.8,    5.0,    3.5,    2.8,    0.9,    1.9,    4.2,    4.0,    4.4,    3.4,    2.1,    1.2,    1.3,    1.8,    0.8,    0.2,    0.5,    0.2,    0.1,  999.0,  999.0,    0.2,   -0.2,   -0.0,    0.2,   -0.0,  999.0,  999.0,  999.0,  999.0,  999.0,  999.0,    0.7,  999.0,    0.2,    0.5,  999.0,  999.0
1998/10/09 16:30,  999.0,  999.0,  999.0,  999.0,   -4.3,   -3.0,   -1.9,   -0.7,   -0.1,    0.7,    0.6,    0.4,    0.7,    1.3,    1.1,    0.4,   -0.6,    0.7,   -0.1,    1.8,    2.6,    2.2,    2.3,    1.4,    0.5,    0.3,    1.1,    1.9,    2.0,    1.5,    0.7,    0.1,    0.4,    0.2,    0.4,   -0.0,  999.0,   -0.0,    0.4,    0.0,  999.0,  999.0,  999.0,  999.0,  999.0,  999.0,    0.1,  999.0,   -0.3,  999.0,  999.0,  999.0
1998/10/09 16:40,  999.0,  999.0,  999.0,  999.0,  999.0,   -2.8,   -1.8,   -1.6,   -0.9,   -0.9,   -1.1,   -1.2,   -0.7,    1.3,    1.6,    1.3,    0.1,   -0.6,   -0.7,   -0.3,   -0.0,    0.6,    1.8,    2.2,    0.9,    0.3,   -0.1,   -0.1,    0.8,    0.6,   -0.0,    0.6,    0.4,    0.1,    0.2,  999.0,    0.5,   -0.0,    0.1,    0.5,   -0.1,  999.0,  999.0,  999.0,  999.0,  999.0,  999.0,  999.0,   -0.2,  999.0,  999.0,  999.0
1998/10/09 16:50,  999.0,  999.0,  999.0,  999.0,  999.0,   -2.8,   -2.2,   -2.2,   -2.0,   -1.8,   -1.8,   -1.6,   -2.0,   -1.2,   -1.4,    0.2,    1.7,    0.8,   -1.0,   -1.5,   -1.4,   -1.0,   -1.2,   -1.4,    0.0,    0.5,    1.4,    1.4,   -0.1,   -0.1,   -0.2,  999.0,   -0.2,  999.0,  999.0,   -0.4,  999.0,    0.0,   -0.4,    0.0,  999.0,  999.0,  999.0,  999.0,  999.0,  999.0,  999.0,  999.0,   -0.2,   -0.1,  999.0,  999.0
1998/10/09 17:00,  999.0,  999.0,  999.0,  999.0,  999.0,   -1.4,    0.6,    0.4,    0.6,    0.3,    0.1,    0.0,   -0.2,   -0.2,   -0.4,   -0.3,   -0.4,   -0.8,   -0.9,   -1.0,   -1.1,   -0.9,   -0.5,   -0.2,    0.5,    0.2,    0.8,    1.5,    1.4,    1.0,    0.2,    0.2,   -0.0,    0.2,   -0.1,   -0.1,   -0.0,    0.1,  999.0,   -0.1,  999.0,  999.0,  999.0,  999.0,  999.0,  999.0,  999.0,   -0.5,   -0.0,   -0.1,    0.2,  999.0
1998/10/09 17:10,  999.0,  999.0,  999.0,  999.0,  999.0,   -3.1,   -1.5,   -0.9,    0.0,    0.0,   -0.4,   -0.4,   -0.2,   -0.6,   -0.4,   -0.5,   -1.3,   -2.8,   -2.7,   -1.7,   -1.4,   -1.2,   -1.3,   -1.1,   -0.6,   -0.5,    0.4,    0.4,    0.3,   -0.1,   -0.6,   -1.0,   -0.5,  999.0,   -0.8,    0.4,  999.0,    0.3,  999.0,    0.2,  999.0,  999.0,  999.0,  999.0,  999.0,  999.0,  999.0,    0.2,    0.1,  999.0,  999.0,  999.0
1998/10/09 17:20,  999.0,  999.0,  999.0,  999.0,  999.0,   -2.1,   -0.4,    0.1,   -0.0,   -0.0,   -0.5,   -0.8,   -1.5,   -1.7,   -0.8,   -0.6,   -0.6,   -0.9,   -0.3,    0.2,    0.5,    0.6,    1.0,    1.1,    1.1,    1.1,    1.0,    1.5,    2.1,    1.3,    1.1,    0.3,    0.7,    0.5,    0.3,    0.7,    0.1,    0.0,    0.0,    0.3,  999.0,  999.0,  999.0,  999.0,  999.0,  999.0,    0.3,  999.0,    0.1,   -0.1,  999.0,  999.0
1998/10/09 17:30,  999.0,  999.0,  999.0,  999.0,  999.0,   -0.8,    0.5,    0.2,    0.0,    0.2,    0.1,   -0.0,   -0.8,   -1.2,   -1.6,   -1.9,   -1.8,   -1.0,   -0.2,   -0.2,    0.1,    1.1,    1.0,    0.8,    0.9,    0.0,    0.3,    1.9,    2.0,    0.3,  999.0,   -0.0,  999.0,  999.0,   -0.2,  999.0,  999.0,    0.0,  999.0,   -0.2,  999.0,  999.0,  999.0,  999.0,  999.0,  999.0,  999.0,    0.5,  999.0,   -0.1,  999.0,  999.0
1998/10/09 17:40,  999.0,  999.0,  999.0,  999.0,  999.0,   -0.9,    0.4,    0.2,   -0.1,   -0.9,   -1.0,   -1.7,   -1.9,   -1.5,   -1.7,   -1.6,   -1.0,   -0.7,    0.3,    0.8,    0.5,    1.0,    1.1,    0.7,    0.7,    0.7,    2.3,    2.5,    2.8,    0.7,    0.5,    0.0,  999.0,  999.0,  999.0,  999.0,    0.1,   -0.1,  999.0,    0.0,  999.0,  999.0,  999.0,  999.0,  999.0,  999.0,  999.0,  999.0,   -0.3,    0.5,  999.0,  999.0
1998/10/09 17:50,  999.0,  999.0,  999.0,  999.0,  999.0,   -0.3,    0.3,   -0.2,   -0.9,   -1.7,   -1.6,   -0.9,   -1.9,   -0.8,   -1.5,   -1.3,   -0.5,   -0.9,  999.0,    0.2,   -0.6,   -0.6,   -0.4,    0.6,    2.0,    0.7,    0.5,    1.1,    0.9,   -0.1,   -0.3,    0.0,  999.0,  999.0,  999.0,  999.0,  999.0,    0.3,  999.0,   -0.1,  999.0,  999.0,  999.0,  999.0,  999.0,  999.0,  999.0,  999.0,   -0.2,   -0.1,   -0.1,  999.0
1998/10/09 18:00,  999.0,  999.0,  999.0,  999.0,  999.0,    0.5,    1.2,    1.5,    0.8,   -1.0,   -0.0,   -0.2,   -0.5,   -0.3,   -0.8,   -1.0,   -1.9,   -0.7,   -0.0,   -0.7,   -1.2,   -1.1,   -0.8,   -1.3,    1.4,    0.4,    0.3,    0.8,    0.3,   -0.4,   -0.8,  999.0,  999.0,  999.0,  999.0,  999.0,  999.0,  999.0,   -0.0,  999.0,  999.0,  999.0,  999.0,  999.0,  999.0,  999.0,  999.0,  999.0,  999.0,  999.0,  999.0,  999.0
1998/10/09 18:10,  999.0,  999.0,  999.0,  999.0,  999.0,   -1.2,    0.0,   -0.4,   -1.7,   -0.7,   -0.6,   -0.2,   -0.0,   -0.8,   -1.6,   -2.1,   -0.5,    0.3,   -0.2,   -0.8,   -1.5,   -1.0,   -0.3,   -1.7,   -0.7,   -0.1,   -0.1,    1.3,    1.2,   -1.3,   -1.0,  999.0,  999.0,  999.0,   -0.9,  999.0,  999.0,   -0.5,   -0.1,  999.0,  999.0,  999.0,  999.0,  999.0,  999.0,  999.0,  999.0,  999.0,  999.0,  999.0,  999.0,  999.0
1998/10/09 18:20,  999.0,  999.0,  999.0,  999.0,  999.0,  999.0,   -0.1,    0.4,   -0.2,   -1.1,   -0.8,   -0.6,   -1.4,   -1.9,   -1.4,   -2.2,   -2.5,   -0.8,   -0.6,  999.0,   -0.7,   -0.3,    0.1,   -0.0,    0.2,    0.6,    0.7,    1.6,    1.3,    0.4,    0.1,  999.0,  999.0,  999.0,  999.0,   -0.2,  999.0,   -0.6,   -0.1,    0.2,  999.0,  999.0,  999.0,  999.0,  999.0,  999.0,  999.0,  999.0,   -0.2,   -0.1,  999.0,  999.0
1998/10/09 18:30,  999.0,  999.0,  999.0,  999.0,  999.0,  999.0,    1.3,    0.2,    0.8,   -0.3,   -0.1,   -0.4,   -1.0,   -1.5,   -1.8,   -1.4,   -0.7,   -0.2,  999.0,   -0.3,   -0.4,   -0.5,    0.2,   -0.4,    1.3,    1.2,    0.4,    1.1,  999.0,   -0.8,   -0.6,  999.0,  999.0,  999.0,  999.0,  999.0,  999.0,  999.0,   -0.1,  999.0,  999.0,  999.0,  999.0,  999.0,  999.0,  999.0,  999.0,  999.0,   -0.5,   -0.5,  999.0,  999.0
1998/10/09 18:40,  999.0,  999.0,  999.0,  999.0,  999.0,   -0.9,   -0.7,   -0.6,   -0.3,    0.7,  999.0,    1.1,   -1.8,   -3.2,   -3.2,    0.0,    0.8,    0.5,  999.0,   -0.7,    1.2,    0.3,   -0.5,   -0.4,    1.0,    0.3,    1.1,    1.5,  999.0,  999.0,  999.0,  999.0,  999.0,  999.0,  999.0,  999.0,  999.0,  999.0,  999.0,  999.0,  999.0,  999.0,  999.0,  999.0,  999.0,  999.0,  999.0,  999.0,   -0.6,   -0.6,  999.0,  999.0
1998/10/09 18:50,  999.0,  999.0,  999.0,  999.0,  999.0,   -2.6,   -0.4,   -0.3,   -0.2,   -1.2,   -2.9,  999.0,   -3.1,   -0.9,   -1.1,  999.0,  999.0,  999.0,  999.0,  999.0,  999.0,    1.6,    2.0,  999.0,  999.0,    0.0,  999.0,    1.1,  999.0,  999.0,  999.0,  999.0,  999.0,  999.0,  999.0,  999.0,  999.0,  999.0,  999.0,  999.0,  999.0,  999.0,  999.0,  999.0,  999.0,  999.0,  999.0,  999.0,  999.0,  999.0,  999.0,  999.0
1998/10/09 19:00,  999.0,  999.0,  999.0,  999.0,  999.0,   -4.5,   -1.3,    1.2,  999.0,   -0.1,  999.0,    0.1,   -3.4,  999.0,    0.4,  999.0,  999.0,  999.0,  999.0,  999.0,  999.0,  999.0,  999.0,  999.0,  999.0,  999.0,  999.0,  999.0,  999.0,  999.0,  999.0,  999.0,  999.0,  999.0,  999.0,  999.0,  999.0,  999.0,  999.0,  999.0,  999.0,  999.0,  999.0,  999.0,  999.0,  999.0,  999.0,  999.0,  999.0,  999.0,  999.0,  999.0
1998/10/09 19:10,  999.0,  999.0,  999.0,  999.0,  999.0,  999.0,   -2.1,  999.0,  999.0,  999.0,    1.0,   -2.9,   -0.8,   -0.5,   -0.8,   -2.1,   -1.7,   -3.5,   -3.5,   -3.9,   -1.8,   -1.7,    0.0,   -2.0,    0.9,  999.0,    1.8,  999.0,  999.0,  999.0,  999.0,  999.0,  999.0,  999.0,  999.0,  999.0,  999.0,  999.0,  999.0,  999.0,  999.0,  999.0,  999.0,  999.0,  999.0,  999.0,  999.0,  999.0,  999.0,  999.0,  999.0,  999.0
1998/10/09 19:20,  999.0,  999.0,  999.0,  999.0,  999.0,    0.3,   -1.5,   -2.1,   -1.0,  999.0,   -4.6,  999.0,  999.0,   -2.0,   -3.1,   -2.7,   -2.4,   -3.4,  999.0,   -1.7,    0.8,    1.5,    1.4,  999.0,  999.0,    2.2,    1.2,  999.0,  999.0,  999.0,  999.0,  999.0,  999.0,  999.0,  999.0,  999.0,  999.0,  999.0,  999.0,  999.0,  999.0,  999.0,  999.0,  999.0,  999.0,  999.0,  999.0,  999.0,  999.0,  999.0,  999.0,  999.0
1998/10/09 19:30,  999.0,  999.0,  999.0,  999.0,  999.0,  999.0,   -1.0,   -1.3,  999.0,   -1.1,  999.0,   -4.9,   -3.0,   -3.2,   -3.0,   -0.8,   -0.0,    0.9,    0.6,    1.9,    2.5,    3.6,    3.0,    3.5,  999.0,    2.7,    2.5,  999.0,  999.0,  999.0,  999.0,  999.0,  999.0,  999.0,  999.0,  999.0,  999.0,  999.0,  999.0,  999.0,  999.0,  999.0,  999.0,  999.0,  999.0,  999.0,  999.0,  999.0,  999.0,    2.5,  999.0,  999.0
1998/10/09 19:40,  999.0,  999.0,  999.0,  999.0,  999.0,  999.0,   -0.1,  999.0,  999.0,   -1.4,  999.0,  999.0,  999.0,   -0.8,   -1.5,   -1.3,   -0.5,   -0.7,   -0.6,  999.0,   -0.5,    0.1,    0.7,    1.3,  999.0,    2.8,    2.4,    1.7,  999.0,  999.0,  999.0,  999.0,  999.0,  999.0,  999.0,  999.0,  999.0,  999.0,  999.0,  999.0,  999.0,  999.0,  999.0,  999.0,  999.0,  999.0,  999.0,  999.0,  999.0,  999.0,  999.0,  999.0
1998/10/09 19:50,  999.0,  999.0,  999.0,  999.0,  999.0,  999.0,   -1.7,   -3.8,   -3.0,   -1.8,   -1.8,   -2.8,   -2.3,   -2.6,   -1.9,   -0.4,    0.2,    1.1,    3.5,    3.4,    2.7,    2.5,  999.0,    2.4,    2.2,    1.9,    3.1,    3.3,  999.0,  999.0,  999.0,  999.0,  999.0,  999.0,  999.0,  999.0,  999.0,  999.0,  999.0,  999.0,  999.0,  999.0,  999.0,  999.0,  999.0,  999.0,  999.0,  999.0,  999.0,  999.0,  999.0,  999.0
1998/10/09 20:00,  999.0,  999.0,  999.0,  999.0,  999.0,   -0.5,    0.6,   -2.2,   -1.6,   -0.7,   -2.8,   -3.6,   -0.6,   -0.4,   -0.3,   -0.6,    0.8,    2.5,    2.3,    2.3,    2.6,  999.0,  999.0,  999.0,    2.2,    2.9,    3.1,    3.2,  999.0,  999.0,  999.0,  999.0,  999.0,  999.0,  999.0,  999.0,  999.0,  999.0,  999.0,  999.0,  999.0,  999.0,  999.0,  999.0,  999.0,  999.0,  999.0,  999.0,  999.0,  999.0,  999.0,  999.0
1998/10/09 20:10,  999.0,  999.0,  999.0,  999.0,  999.0,   -0.1,   -1.3,    1.1,   -0.7,    0.3,   -1.6,   -0.8,   -2.4,   -1.9,   -1.5,    2.0,    0.6,    0.9,    1.3,    1.1,    1.8,    3.4,  999.0,  999.0,    2.0,    3.2,    2.7,    3.4,  999.0,  999.0,  999.0,  999.0,  999.0,  999.0,  999.0,  999.0,  999.0,  999.0,    1.4,  999.0,  999.0,  999.0,  999.0,  999.0,  999.0,  999.0,  999.0,  999.0,  999.0,    2.2,  999.0,  999.0
1998/10/09 20:20,  999.0,  999.0,  999.0,  999.0,  999.0,  999.0,  999.0,   -1.9,   -0.3,   -0.7,    0.7,   -0.1,   -1.4,   -1.4,   -0.7,   -0.8,  999.0,  999.0,    0.2,    4.3,    3.2,    1.4,  999.0,  999.0,  999.0,    0.9,  999.0,  999.0,  999.0,  999.0,  999.0,  999.0,  999.0,  999.0,  999.0,  999.0,  999.0,  999.0,  999.0,  999.0,  999.0,  999.0,  999.0,  999.0,  999.0,  999.0,  999.0,  999.0,  999.0,  999.0,  999.0,  999.0
1998/10/09 20:30,  999.0,  999.0,  999.0,  999.0,  999.0,  999.0,  999.0,    1.7,   -1.3,   -0.8,   -1.1,   -1.2,   -2.0,   -1.1,   -1.7,   -0.4,   -0.1,    0.9,  999.0,    1.9,    1.9,  999.0,  999.0,  999.0,  999.0,    1.4,    1.8,  999.0,  999.0,  999.0,  999.0,  999.0,  999.0,  999.0,  999.0,  999.0,  999.0,  999.0,  999.0,  999.0,  999.0,  999.0,  999.0,  999.0,  999.0,  999.0,  999.0,  999.0,  999.0,  999.0,  999.0,  999.0
1998/10/09 20:40,  999.0,  999.0,  999.0,  999.0,  999.0,  999.0,   -1.2,   -2.1,   -0.3,   -1.6,   -1.6,   -1.0,   -2.0,   -1.1,   -0.9,   -0.6,   -0.8,  999.0,    2.5,  999.0,    2.1,  999.0,  999.0,    2.1,    2.0,    1.0,    2.4,    2.5,  999.0,  999.0,  999.0,  999.0,  999.0,  999.0,  999.0,  999.0,  999.0,  999.0,  999.0,  999.0,  999.0,  999.0,  999.0,  999.0,  999.0,  999.0,  999.0,  999.0,  999.0,    0.2,  999.0,  999.0
1998/10/09 20:50,  999.0,  999.0,  999.0,  999.0,  999.0,  999.0,    1.2,    1.9,  999.0,    0.3,   -0.5,   -1.9,   -2.7,   -1.5,   -1.2,   -1.2,   -0.8,   -0.5,  999.0,    1.7,    2.4,  999.0,    2.6,    3.5,  999.0,    2.2,    3.2,    3.5,  999.0,  999.0,  999.0,  999.0,  999.0,  999.0,  999.0,  999.0,  999.0,  999.0,  999.0,  999.0,  999.0,  999.0,  999.0,  999.0,  999.0,  999.0,  999.0,  999.0,  999.0,  999.0,  999.0,  999.0
1998/10/09 21:00,  999.0,  999.0,  999.0,  999.0,  999.0,  999.0,  999.0,    2.1,    0.2,   -1.5,   -1.8,   -1.6,   -2.0,   -1.6,   -1.1,   -1.0,   -0.9,   -0.3,  999.0,    1.6,    2.4,    2.7,    1.7,  999.0,    1.5,    0.6,    1.7,    2.9,    2.6,  999.0,  999.0,  999.0,  999.0,  999.0,    0.2,  999.0,  999.0,  999.0,  999.0,  999.0,  999.0,  999.0,  999.0,  999.0,  999.0,  999.0,  999.0,  999.0,  999.0,  999.0,  999.0,  999.0
1998/10/09 21:10,  999.0,  999.0,  999.0,  999.0,  999.0,  999.0,    1.0,    0.2,    0.2,   -0.6,   -1.3,   -2.2,   -1.9,   -2.3,   -1.2,    0.3,    1.9,    1.4,    1.7,    1.6,    1.5,    1.1,    1.8,  999.0,  999.0,    0.7,    2.4,    3.6,  999.0,  999.0,  999.0,  999.0,  999.0,  999.0,  999.0,  999.0,  999.0,  999.0,  999.0,  999.0,  999.0,  999.0,  999.0,  999.0,  999.0,  999.0,  999.0,  999.0,    0.0,  999.0,  999.0,  999.0
1998/10/09 21:20,  999.0,  999.0,  999.0,  999.0,  999.0,  999.0,    1.5,    1.2,    0.2,   -0.5,   -0.9,   -0.7,   -0.7,   -0.5,   -1.1,    0.5,    0.4,  999.0,   -1.2,    0.6,    0.8,    0.4,   -0.2,  999.0,  999.0,    0.2,    2.1,    2.9,  999.0,  999.0,  999.0,  999.0,  999.0,  999.0,  999.0,  999.0,  999.0,  999.0,  999.0,  999.0,  999.0,  999.0,  999.0,  999.0,  999.0,  999.0,  999.0,  999.0,  999.0,  999.0,  999.0,  999.0
1998/10/09 21:30,  999.0,  999.0,  999.0,  999.0,  999.0,  999.0,  999.0,    1.1,    1.7,    0.7,   -2.4,   -1.8,   -1.2,   -1.2,   -0.0,    0.7,    1.2,    2.5,  999.0,    1.8,    0.6,  999.0,  999.0,  999.0,  999.0,  999.0,    3.1,    3.8,    4.2,  999.0,  999.0,  999.0,  999.0,  999.0,  999.0,  999.0,  999.0,  999.0,  999.0,  999.0,  999.0,  999.0,  999.0,  999.0,  999.0,  999.0,  999.0,  999.0,  999.0,  999.0,  999.0,  999.0
1998/10/09 21:40,  999.0,  999.0,  999.0,  999.0,  999.0,  999.0,    1.7,    0.3,    0.7,    0.7,   -0.1,   -0.7,   -1.0,   -1.6,   -0.8,   -0.3,    1.0,    1.2,    2.1,    0.9,    2.0,    1.9,    2.8,    2.9,  999.0,  999.0,    3.7,    4.5,    3.8,  999.0,  999.0,  999.0,  999.0,  999.0,  999.0,  999.0,  999.0,  999.0,  999.0,  999.0,  999.0,  999.0,  999.0,  999.0,  999.0,  999.0,  999.0,  999.0,    0.9,   -0.1,  999.0,  999.0
1998/10/09 21:50,  999.0,  999.0,  999.0,  999.0,  999.0,  999.0,   -0.7,   -0.5,   -0.8,   -1.3,   -1.2,   -1.6,  999.0,   -1.0,   -2.3,   -1.3,    1.2,    2.1,    0.6,    1.6,  999.0,  999.0,    1.7,    1.8,  999.0,    2.7,    3.1,  999.0,    3.0,  999.0,  999.0,  999.0,  999.0,  999.0,  999.0,  999.0,  999.0,  999.0,  999.0,  999.0,  999.0,  999.0,  999.0,  999.0,  999.0,  999.0,  999.0,  999.0,  999.0,  999.0,  999.0,  999.0
1998/10/09 22:00,  999.0,  999.0,  999.0,  999.0,  999.0,   -2.7,   -1.4,   -1.0,   -0.5,   -1.5,   -1.3,   -1.8,  999.0,  999.0,   -1.1,   -1.3,   -1.5,    1.9,    0.9,    1.2,    1.5,    1.5,    1.8,    1.9,    1.7,    0.4,    0.5,    3.3,    3.3,  999.0,  999.0,  999.0,  999.0,  999.0,  999.0,  999.0,  999.0,  999.0,  999.0,  999.0,  999.0,  999.0,  999.0,  999.0,  999.0,  999.0,  999.0,  999.0,    0.9,    0.3,  999.0,  999.0
1998/10/09 22:10,  999.0,  999.0,  999.0,  999.0,  999.0,  999.0,   -1.3,   -1.2,   -1.5,   -1.6,   -0.9,   -0.4,   -1.1,   -3.1,   -2.6,   -1.3,   -0.8,   -0.0,    0.2,    1.3,    0.5,    0.5,    0.9,    1.4,    0.5,    0.6,    3.2,    2.8,  999.0,  999.0,  999.0,  999.0,  999.0,  999.0,  999.0,  999.0,  999.0,  999.0,    0.4,  999.0,  999.0,  999.0,  999.0,  999.0,  999.0,  999.0,  999.0,  999.0,  999.0,    0.5,  999.0,  999.0
1998/10/09 22:20,  999.0,  999.0,  999.0,  999.0,  999.0,  999.0,   -0.6,    0.1,   -0.9,   -0.7,   -1.5,   -1.6,   -1.4,   -0.6,   -0.5,   -1.1,   -0.4,   -0.0,    0.8,   -0.9,    0.0,   -0.2,    0.2,    1.1,    1.0,  999.0,    1.9,    2.7,  999.0,  999.0,  999.0,  999.0,  999.0,  999.0,  999.0,  999.0,  999.0,  999.0,  999.0,  999.0,  999.0,  999.0,  999.0,  999.0,  999.0,  999.0,  999.0,  999.0,  999.0,   -0.5,  999.0,  999.0
1998/10/09 22:30,  999.0,  999.0,  999.0,  999.0,  999.0,  999.0,   -0.4,    0.9,   -0.5,   -0.8,   -1.6,   -2.2,   -2.1,   -2.2,   -2.3,   -2.6,   -1.0,   -0.5,   -0.9,  999.0,   -1.0,   -0.8,   -1.2,   -0.7,    0.5,   -0.4,  999.0,    2.9,    4.0,  999.0,  999.0,  999.0,  999.0,  999.0,  999.0,  999.0,  999.0,  999.0,   -0.2,  999.0,  999.0,  999.0,  999.0,  999.0,  999.0,  999.0,  999.0,  999.0,   -0.3,   -0.4,  999.0,  999.0
1998/10/09 22:40,  999.0,  999.0,  999.0,  999.0,  999.0,  999.0,   -1.3,   -1.1,   -1.2,   -1.1,   -1.1,   -1.9,  999.0,  999.0,   -1.3,   -0.7,   -0.1,   -0.4,  999.0,  999.0,    0.0,   -0.2,   -1.1,   -0.4,  999.0,    0.8,  999.0,  999.0,  999.0,  999.0,  999.0,  999.0,  999.0,  999.0,  999.0,  999.0,  999.0,  999.0,  999.0,  999.0,  999.0,  999.0,  999.0,  999.0,  999.0,  999.0,  999.0,  999.0,  999.0,  999.0,  999.0,  999.0
1998/10/09 22:50,  999.0,  999.0,  999.0,  999.0,  999.0,  999.0,   -1.6,   -1.2,   -0.5,   -0.9,   -1.3,   -1.9,   -1.7,   -1.6,   -1.6,   -1.5,   -0.4,    0.4,    1.0,   -0.2,    0.3,    0.7,    0.8,    2.2,    1.9,    1.0,    1.6,  999.0,    2.4,    2.2,  999.0,  999.0,  999.0,  999.0,  999.0,  999.0,  999.0,  999.0,  999.0,  999.0,  999.0,  999.0,  999.0,  999.0,  999.0,  999.0,  999.0,  999.0,  999.0,  999.0,  999.0,  999.0
1998/10/09 23:00,  999.0,  999.0,  999.0,  999.0,  999.0,  999.0,   -0.0,   -1.3,   -0.9,   -2.4,   -3.3,   -2.7,   -1.7,   -1.6,   -1.8,   -1.1,   -2.3,   -1.5,  999.0,   -1.1,   -1.3,  999.0,   -0.0,    0.1,  999.0,  999.0,  999.0,  999.0,    1.7,    2.4,  999.0,  999.0,  999.0,  999.0,  999.0,  999.0,  999.0,  999.0,  999.0,  999.0,  999.0,  999.0,  999.0,  999.0,  999.0,  999.0,  999.0,  999.0,  999.0,  999.0,  999.0,  999.0
1998/10/09 23:10,  999.0,  999.0,  999.0,  999.0,  999.0,  999.0,   -0.3,   -1.2,   -1.7,   -2.4,   -2.7,   -3.2,   -3.4,   -3.6,   -2.6,   -0.2,   -1.3,   -0.5,  999.0,  999.0,   -1.4,   -1.4,   -1.4,   -0.3,    0.7,    0.1,  999.0,  999.0,  999.0,  999.0,  999.0,  999.0,  999.0,  999.0,  999.0,  999.0,  999.0,  999.0,  999.0,  999.0,  999.0,  999.0,  999.0,  999.0,  999.0,  999.0,  999.0,  999.0,  999.0,    0.1,  999.0,  999.0
1998/10/09 23:20,  999.0,  999.0,  999.0,  999.0,  999.0,  999.0,   -0.3,   -0.4,   -2.3,   -2.0,   -3.5,   -3.4,   -2.5,   -2.5,   -2.4,   -1.8,   -1.1,   -2.3,    0.1,    0.1,    0.1,   -0.1,  999.0,  999.0,    1.4,    1.5,    0.3,   -0.4,  999.0,  999.0,    2.4,  999.0,  999.0,  999.0,  999.0,  999.0,  999.0,  999.0,  999.0,  999.0,  999.0,  999.0,  999.0,  999.0,  999.0,  999.0,  999.0,  999.0,  999.0,  999.0,  999.0,  999.0
1998/10/09 23:30,  999.0,  999.0,  999.0,  999.0,  999.0,  999.0,   -0.7,   -0.8,   -2.1,   -1.7,   -3.3,   -3.6,   -2.6,   -1.6,   -0.7,    0.0,   -0.1,    0.3,    1.7,    0.3,    0.0,    0.4,    1.1,    1.9,    1.5,    0.8,    0.5,  999.0,  999.0,    1.5,    1.4,  999.0,  999.0,  999.0,  999.0,  999.0,  999.0,  999.0,  999.0,  999.0,  999.0,  999.0,  999.0,  999.0,  999.0,  999.0,  999.0,  999.0,  999.0,  999.0,  999.0,  999.0
1998/10/09 23:40,  999.0,  999.0,  999.0,  999.0,  999.0,  999.0,   -1.4,   -1.1,   -2.4,   -1.8,   -1.3,   -1.4,   -1.5,   -1.7,   -0.7,    0.2,    0.6,    0.7,   -0.2,   -1.0,   -1.6,   -2.6,   -0.7,    0.3,    1.1,    0.6,    0.9,  999.0,  999.0,    2.3,  999.0,  999.0,  999.0,  999.0,  999.0,  999.0,  999.0,  999.0,  999.0,  999.0,  999.0,  999.0,  999.0,  999.0,  999.0,  999.0,  999.0,  999.0,  999.0,  999.0,  999.0,  999.0
1998/10/09 23:50,  999.0,  999.0,  999.0,  999.0,  999.0,  999.0,    1.2,    0.2,   -0.9,   -1.4,   -1.9,   -1.6,   -1.1,   -1.4,   -1.6,   -0.4,   -0.6,   -0.8,   -0.6,   -0.2,   -0.4,   -1.1,   -1.6,    0.1,    0.6,    0.3,  999.0,  999.0,  999.0,    2.4,  999.0,  999.0,  999.0,  999.0,  999.0,  999.0,  999.0,  999.0,  999.0,  999.0,  999.0,  999.0,  999.0,  999.0,  999.0,  999.0,  999.0,  999.0,  999.0,  999.0,  999.0,  999.0
